Regional Weather Roundup
Issued by NWS

Home | Current Version | Previous Version | Graphics & Text | Print | Product List | Glossary On
Versions: 1 2 3 4 5 6 7 8 9 10 11 12 13 14 15 16 17 18 19 20 21 22 23 24 25 26 27 28 29 30 31 32 33 34 35 36 37 38 39 40 41 42 43 44 45 46 47 48 49 50
000
ASUS43 KMKX 251359
RWRWI

WISCONSIN REGIONAL WEATHER ROUNDUP
NATIONAL WEATHER SERVICE MILWAUKEE/SULLIVAN WI
900 AM CDT WED APR 25 2018

NOTE: "FAIR" INDICATES FEW OR NO CLOUDS BELOW 12,000 FEET WITH NO
SIGNIFICANT WEATHER AND/OR OBSTRUCTIONS TO VISIBILITY.

WIZ001-002-006>008-014>016-023>028-251500-
NORTHWEST WISCONSIN

CITY           SKY/WX    TMP DP  RH WIND       PRES   REMARKS
SUPERIOR ARPT  FAIR      36  25  63 CALM      30.26F
ASHLAND        FAIR      39  25  57 NE5       30.26S
HAYWARD        FAIR      38  26  62 NE6       30.23F WCI  33
SIREN          FAIR      38  25  59 NE5       30.25F WCI  34
CUMBERLAND     FAIR      36  27  69 NE8       30.23S WCI  29
RICE LAKE      FAIR      38  28  67 NE3       30.24F
CHETEK         FAIR      38  28  65 NE5       30.23R WCI  35
LADYSMITH      FAIR      39  28  66 NE9       30.24S WCI  32
EAU CLAIRE     NOT AVBL
MENOMONIE      FAIR      40  27  59 NE6       30.24S
NEW RICHMOND   FAIR      38  26  61 NE6       30.24R WCI  33
OSCEOLA        FAIR      38  27  62 CALM      30.28R
$$

WIZ003>005-009-010-017-018-251500-
NORTH CENTRAL WISCONSIN

CITY           SKY/WX    TMP DP  RH WIND       PRES   REMARKS
MANITOWISH WTR FAIR      32  28  83 N5        30.20R WCI  28
ARBOR VITAE    FAIR      34  28  80 NE8       30.19F WCI  27
WOODRUFF       FAIR      34  28  80 NE8       30.19F WCI  27
RHINELANDER    FAIR      35  28  75 NE6       30.19F WCI  30
EAGLE RIVER    FAIR      32  25  74 N6        30.18S WCI  26
LAND O LAKES   FAIR      34  25  71 N10       30.19F WCI  26
PHILLIPS       FAIR      35  27  75 NE7       30.21S WCI  29
TOMAHAWK       FAIR      32  29  89 NE6       30.20R WCI  27
MEDFORD        FAIR      35  28  76 NE8       30.19R WCI  28
MERRILL        FAIR      36  29  77 NE10      30.20R WCI  28
$$

WIZ029-030-035-036-043>047-251500-
CENTRAL WISCONSIN

CITY           SKY/WX    TMP DP  RH WIND       PRES   REMARKS
WAUSAU         FAIR      37  28  70 NE8       30.18F WCI  31
MOSINEE        SUNNY     37  30  75 NE8       30.20R WCI  31
MARSHFIELD     FAIR      39  29  67 NE12      30.18F WCI  32
STEVENS POINT  FAIR      37  28  71 NE9       30.20R WCI  30
WAUPACA        FAIR      42  30  62 N7        30.19F
WAUTOMA        FAIR      42  29  59 NE10      30.18F
WISC RAPIDS    FAIR      42  27  55 N10       30.20F
CAMP DOUGLAS   NOT AVBL
$$

WIZ011>013-019>022-031-037>040-048>050-251500-
NORTHEAST WISCONSIN

CITY           SKY/WX    TMP DP  RH WIND       PRES   REMARKS
ANTIGO         FAIR      33  28  80 N8        30.18R WCI  26
SHAWANO        FAIR      41  31  65 NE9       30.19F
OCONTO         FAIR      39  29  67 N14       30.18R WCI  31
STURGEON BAY   FAIR      37  30  75 N16       30.17S WCI  28
GREEN BAY      FAIR      42  30  62 N14       30.17F
MANITOWOC      FAIR      41  31  67 N15G21    30.15F
APPLETON       SUNNY     39  27  60 N17       30.16R WCI  30
CLINTONVILLE   FAIR      40  28  61 N10G16    30.19F WCI  33
OSHKOSH        FAIR      42  31  64 N12       30.17S
$$

WIZ032>034-041-042-053>061-251500-
SOUTHWEST WISCONSIN

CITY           SKY/WX    TMP DP  RH WIND       PRES   REMARKS
LA CROSSE      FAIR      45  34  65 NW6       30.21S
SPARTA         FAIR      41  35  79 N3        30.21R
VIROQUA        FAIR      43  38  85 N8        30.18R
BOSCOBEL       FAIR      49  36  61 CALM      30.20R
PRAIRIE DU CHI FAIR      46  34  62 NE5       30.19R
PLATTEVILLE    FAIR      47  39  73 NE10      30.17R
$$

WIZ056-057-062-063-064-067-068-251500-
SOUTH CENTRAL WISCONSIN

CITY           SKY/WX    TMP DP  RH WIND       PRES   REMARKS
REEDSBURG      FAIR      44  35  68 NE7       30.17S
BARABOO/DELLS  FAIR      43  33  69 N10       30.16R
LONE ROCK      NOT AVBL
MINERAL POINT  FAIR      46  37  71 NE10      30.16R
MADISON        FAIR      46  35  65 NE14      30.15S
MIDDLETON      FAIR      46  37  70 N13       30.16R
WATERTOWN      FAIR      43  37  78 N12       30.14S
MONROE         FAIR      46  34  61 N14       30.14R
JANESVILLE     SUNNY     48  34  57 NE12      30.14R
$$

WIZ051-052-058>065-066-070>072-251500-
SOUTHEAST WISCONSIN

CITY           SKY/WX    TMP DP  RH WIND       PRES   REMARKS
MILWAUKEE      FAIR      46  31  55 N20G28    30.13S
WAUKESHA       SUNNY     45  30  57 N13       30.13R
MILWAUKEE/TIMM SUNNY     46  28  49 N15       30.13R
RACINE         FAIR      44  32  62 N21G32    30.14S
BURLINGTON     FAIR      46  32  58 N7        30.12R
KENOSHA        FAIR      47  31  53 N18G25    30.12S
FOND DU LAC    FAIR      41  32  70 N15       30.17S
SHEBOYGAN      FAIR      44  33  65 N14       30.14F
WEST BEND      FAIR      43  32  65 N13G18    30.14R
JUNEAU         FAIR      41  33  72 N13G18    30.16R
$$

LSZ147-162-251500-
LAKE SUPERIOR

STATION/POSITION TIME  TEMP    WIND        PRES    WAVE
                       AIR SEA DIR/SP/G            HT/PER
                 (UTC) (F)     (DEG/KT/KT) (MB)    (FT/S)
DEVILS ISLAND    1300   35      10/  5/  6 1025.6S
SAXON HARBOR     1330   36      CALM  /  2 1024.0S
$$

LMZ867-665-643>646-251500-
LAKE MICHIGAN

STATION/POSITION TIME  TEMP    WIND        PRES    WAVE
                       AIR SEA DIR/SP/G            HT/PER
                 (UTC) (F)     (DEG/KT/KT) (MB)    (FT/S)
NORTHPORT PIER   1340   35                 1021.0S
KEWAUNEE LAKESHO 1330   40     330/ 11/ 20 1020.3F
SHEBOYGAN LAKESH 1300   39     350/ 17/ 19 1021.4R
PORT WASHINGTON  1340   45     360/  8/ 17 1021.7S
MILWAUKEE LAKESH 1330   42     360/ 19/ 23   N/A
KENOSHA   LAKESH 1300   42                 1019.6
$$

TC  - TEMPERATURE IN CELSIUS
VSB - VISIBILITY IN STATUTE MILES
WCI - WIND CHILL INDEX
HX  - HEAT INDEX





USA.gov is the U.S. government's official web portal to all federal, state and local government web resources and services.